KC4LW Weather Reports


Display with metric or nautical units.
time (UTC)temp
F
wind
direction
speed
MPH
gust
MPH
rain 1hr
in
rain 24hr
in
rain mn
in
humidity
%
barometer
mb
20260510183104 79 32 1.0 7.0 0.00 0.28 0.05 87 1015.1
20260510181602 80 80 1.0 4.0 0.00 0.28 0.05 87 1015.1
20260510180056 80 246 1.0 6.0 0.00 0.28 0.05 87 1015.2
20260510174554 79 24 1.0 4.0 0.00 0.28 0.05 89 1015.3
20260510173054 78 116 1.0 6.0 0.00 0.28 0.05 91 1015.3
20260510171554 76 0 0.0 3.0 0.00 0.28 0.05 94 1015.5
20260510170059 75 114 0.0 4.0 0.00 0.28 0.05 96 1016.0
20260510164556 74 75 1.0 4.0 0.00 0.28 0.05 97 1016.2
20260510163053 74 0 1.0 4.0 0.00 0.28 0.05 98 1016.2
20260510161551 74 115 0.0 2.0 0.00 0.28 0.05 99 1016.3
20260510160053 73 92 1.0 3.0 0.00 0.28 0.05 99 1016.2
20260510154556 73 0 2.0 4.0 0.00 0.28 0.05 99 1016.4
20260510153054 73 0 0.0 3.0 0.00 0.28 0.05 100 1016.2
20260510151552 73 0 1.0 3.0 0.00 0.28 0.05 100 1015.9
20260510150057 72 0 0.0 3.0 0.00 0.28 0.05 100 1016.2
20260510144552 72 0 0.0 3.0 0.00 0.28 0.05 100 1016.3
20260510143053 72 0 0.0 3.0 0.00 0.28 0.05 100 1016.1
20260510141557 73 294 0.0 2.0 0.00 0.28 0.05 100 1015.9
20260510140056 73 286 0.0 1.0 0.00 0.28 0.05 100 1015.9
20260510134604 72 0 0.0 2.0 0.00 0.28 0.05 100 1015.7
20260510133052 72 0 0.0 2.0 0.00 0.28 0.05 100 1015.8
20260510131553 72 0 0.0 2.0 0.00 0.28 0.05 100 1015.6
20260510130053 72 0 0.0 3.0 0.00 0.28 0.05 100 1015.5
20260510124556 72 0 0.0 2.0 0.00 0.28 0.05 100 1015.2
20260510123054 72 302 1.0 3.0 0.00 0.28 0.05 100 1015.1
20260510121553 72 302 1.0 4.0 0.01 0.28 0.05 100 1014.9
20260510120052 71 0 0.0 3.0 0.01 0.28 0.05 100 1014.7
20260510114549 71 0 0.0 1.0 0.01 0.28 0.05 100 1014.4
20260510113053 70 0 0.0 1.0 0.01 0.28 0.05 100 1014.2
20260510111554 70 0 0.0 0.0 0.00 0.27 0.04 99 1013.9
20260510110058 70 0 0.0 0.0 0.00 0.27 0.04 99 1013.8
20260510104552 70 0 0.0 0.0 0.00 0.28 0.04 99 1013.8
20260510103100 70 0 0.0 0.0 0.01 0.28 0.04 99 1013.6
20260510101605 70 0 0.0 0.0 0.01 0.28 0.04 100 1013.3
20260510100055 70 0 0.0 0.0 0.01 0.28 0.04 100 1013.3
20260510094553 71 0 0.0 1.0 0.01 0.28 0.04 99 1013.3
20260510093053 70 0 0.0 0.0 0.00 0.27 0.03 100 1013.0
20260510091556 70 0 0.0 1.0 0.00 0.27 0.03 99 1012.8
20260510090055 70 0 0.0 1.0 0.00 0.27 0.03 100 1012.4
20260510084552 70 0 0.0 0.0 0.00 0.27 0.03 99 1012.4
20260510083053 71 0 0.0 1.0 0.00 0.27 0.03 99 1012.3
20260510081557 71 284 0.0 1.0 0.00 0.27 0.03 99 1012.6
20260510080050 70 360 0.0 1.0 0.01 0.27 0.03 99 1012.8
20260510074602 70 0 0.0 0.0 0.01 0.27 0.03 99 1012.4
20260510073100 70 0 0.0 0.0 0.01 0.27 0.03 99 1012.2
20260510071552 70 0 0.0 0.0 0.02 0.27 0.03 99 1012.2
20260510070052 70 0 0.0 0.0 0.01 0.26 0.02 99 1012.1
20260510064555 70 0 0.0 0.0 0.01 0.26 0.02 99 1012.3
20260510063102 70 0 0.0 0.0 0.01 0.26 0.02 99 1012.3
20260510061603 70 0 0.0 0.0 0.00 0.25 0.01 99 1012.5
20260510060054 70 0 0.0 0.0 0.00 0.25 0.01 99 1012.9
20260510054600 70 0 0.0 1.0 0.01 0.25 0.01 99 1013.1
20260510053055 71 0 0.0 1.0 0.01 0.25 0.01 99 1013.3
20260510051554 71 0 0.0 2.0 0.01 0.25 0.01 99 1013.7
20260510050055 70 0 0.0 0.0 0.01 0.25 0.01 99 1014.0
20260510044553 70 0 0.0 0.0 0.00 0.29 0.00 99 1013.7
20260510043051 70 0 0.0 0.0 0.00 0.29 0.00 99 1013.7
20260510041620 71 0 0.0 0.0 0.00 0.29 0.00 99 1013.7
20260510040100 71 0 0.0 0.0 0.00 0.29 0.00 99 1013.8
20260510034604 71 0 0.0 0.0 0.00 0.43 0.29 99 1013.8
20260510033116 71 0 0.0 1.0 0.00 0.43 0.29 99 1014.0
20260510031556 71 0 0.0 1.0 0.00 0.43 0.29 99 1013.9
20260510030056 71 0 0.0 1.0 0.00 0.43 0.29 99 1013.9
20260510024610 71 360 0.0 2.0 0.00 0.43 0.29 99 1013.4
20260510023100 71 0 0.0 1.0 0.00 0.43 0.29 98 1013.2
20260510021602 71 0 0.0 1.0 0.00 0.43 0.29 98 1013.0
20260510020056 71 0 0.0 1.0 0.01 0.43 0.29 98 1012.7
20260510014612 71 0 0.0 2.0 0.01 0.43 0.29 98 1012.5
20260510013102 71 0 0.0 3.0 0.01 0.43 0.29 98 1012.8
20260510011553 71 0 0.0 1.0 0.01 0.43 0.29 98 1012.1
20260510010053 71 0 0.0 1.0 0.00 0.42 0.28 98 1012.2
20260510004600 71 0 0.0 1.0 0.00 0.42 0.28 98 1012.5
20260510003052 71 0 0.0 2.0 0.00 0.42 0.28 98 1012.6
20260510001552 71 0 0.0 1.0 0.00 0.42 0.28 98 1012.5
20260510000056 71 0 0.0 1.0 0.00 0.42 0.28 98 1012.5
20260509234554 72 0 0.0 0.0 0.00 0.42 0.28 97 1012.3
20260509233053 72 0 0.0 1.0 0.00 0.42 0.28 97 1012.3
20260509231604 72 0 0.0 1.0 0.00 0.42 0.28 97 1012.2
20260509230055 72 0 0.0 3.0 0.00 0.42 0.28 97 1012.3
20260509224552 72 0 0.0 2.0 0.00 0.42 0.28 97 1012.3
20260509223056 72 0 0.0 2.0 0.00 0.42 0.28 97 1012.4
20260509221553 72 0 0.0 5.0 0.00 0.42 0.28 97 1012.1
20260509220059 72 0 0.0 2.0 0.00 0.42 0.28 97 1012.3
20260509214557 72 0 1.0 3.0 0.02 0.42 0.28 96 1012.2
20260509213055 73 19 0.0 2.0 0.04 0.42 0.28 96 1012.1
20260509211558 73 0 1.0 7.0 0.06 0.42 0.28 96 1012.1
20260509210054 75 0 0.0 1.0 0.06 0.42 0.28 96 1011.8
20260509204553 75 0 0.0 2.0 0.04 0.40 0.26 96 1011.8
20260509203054 75 279 0.0 3.0 0.06 0.38 0.24 96 1011.8
20260509201552 75 0 0.0 1.0 0.12 0.36 0.22 95 1011.7
20260509200056 75 0 0.0 2.0 0.16 0.36 0.22 94 1011.6
20260509194553 76 280 0.0 1.0 0.16 0.36 0.22 93 1011.7
20260509193055 76 0 0.0 2.0 0.12 0.32 0.18 91 1011.8
20260509191553 77 0 0.0 1.0 0.03 0.23 0.09 89 1011.8
20260509190054 78 0 0.0 3.0 0.00 0.20 0.06 84 1011.6
20260509184549 79 78 1.0 4.0 0.00 0.20 0.06 82 1011.5